Location: Seasalter
(51.3333°N, 1.0167°E)
Time: 04:22:43
(UTC+00:00)

ATLAS 5 CENTAUR R/B - Pass Details

Date: 27 April 2024
Orbit: 421 x 1170 km, 63.3° (Epoch: 18 May)

Event Time Altitude Azimuth Distance (km) Brightness Sun altitude
Rises 19:55:24 0° 284° (WNW) 2,497 6.3 -6.7°
Reaches altitude 10° 19:57:56 10° 305° (NW) 1,705 5.7 -7.0°
Maximum altitude 20:00:34 18° 349° (N) 1,382 4.0 -7.3°
Drops below altitude 10° 20:03:32 10° 33° (NNE) 1,943 4.1 -7.7°
Sets 20:06:42 0° 53° (NE) 3,009 4.9 -8.1°
